CW5586 Weather Reports


Display with metric or nautical units.
time (UTC)temp
F
wind
direction
speed
MPH
gust
MPH
rain 1hr
in
rain 24hr
in
rain mn
in
humidity
%
barometer
mb
20260510134604 52 233 1.0 13.0 0.00 0.00 0.00 66 1010.6
20260510134105 52 302 8.0 13.0 0.00 0.00 0.00 63 1010.6
20260510133105 52 228 6.0 20.0 0.00 0.00 0.00 61 1010.6
20260510131103 54 261 2.0 13.0 0.00 0.00 0.00 58 1010.7
20260510130603 54 305 3.0 14.0 0.00 0.00 0.00 57 1010.7
20260510130115 55 244 10.0 16.0 0.00 0.00 0.00 57 1010.7
20260510124604 55 270 5.0 13.0 0.00 0.00 0.00 57 1010.9
20260510124104 55 300 10.0 13.0 0.00 0.00 0.00 57 1010.9
20260510123603 55 244 6.0 10.0 0.00 0.00 0.00 56 1011.0
20260510121604 54 216 6.0 16.0 0.00 0.00 0.00 59 1011.1
20260510120603 53 298 5.0 14.0 0.00 0.00 0.00 62 1011.2
20260510114104 54 292 5.0 13.0 0.00 0.00 0.00 61 1011.4
20260510113104 55 248 5.0 15.0 0.00 0.00 0.00 62 1011.5
20260510110114 55 230 6.0 14.0 0.00 0.00 0.00 59 1011.8
20260510104604 55 254 3.0 16.0 0.00 0.00 0.00 57 1011.7
20260510104104 55 229 6.0 17.0 0.00 0.00 0.00 58 1011.8
20260510103604 56 234 3.0 17.0 0.00 0.00 0.00 61 1011.8
20260510101104 55 196 9.0 15.0 0.00 0.00 0.00 62 1012.0
20260510094104 55 199 5.0 15.0 0.00 0.00 0.00 62 1012.2
20260510083604 56 198 3.0 13.0 0.00 0.00 0.00 61 1012.5
20260510081604 54 191 8.0 14.0 0.00 0.00 0.00 65 1012.7
20260510074104 54 188 2.0 12.0 0.00 0.00 0.00 65 1013.0
20260510073604 54 212 2.0 9.0 0.00 0.00 0.00 67 1013.2
20260510071103 53 218 5.0 9.0 0.00 0.00 0.00 73 1013.7
20260510064104 49 173 2.0 2.0 0.00 0.00 0.00 76 1014.0
20260510061104 47 0 0.0 0.0 0.00 0.00 0.00 77 1014.3
20260510053604 45 0 0.0 2.0 0.00 0.00 0.00 76 1014.5
20260510053104 44 163 1.0 2.0 0.00 0.00 0.00 76 1014.6
20260510051604 44 0 0.0 0.0 0.00 0.00 0.00 76 1014.9
20260510051104 44 0 0.0 1.0 0.00 0.00 0.00 76 1015.0
20260510050605 43 0 0.0 1.0 0.00 0.00 0.00 76 1015.0
20260510043604 41 0 0.0 0.0 0.00 0.00 0.00 82 1015.2
20260510041104 38 0 0.0 0.0 0.00 0.00 0.00 87 1015.4
20260510040605 37 0 0.0 0.0 0.00 0.00 0.00 88 1015.4
20260510040115 37 0 0.0 0.0 0.00 0.00 0.00 89 1015.5
20260510034604 36 0 0.0 0.0 0.00 0.00 0.00 88 1015.6
20260510034104 36 0 0.0 0.0 0.00 0.00 0.00 88 1015.7
20260510033104 36 0 0.0 0.0 0.00 0.00 0.00 89 1015.9
20260510030115 36 0 0.0 0.0 0.00 0.00 0.00 89 1016.2
20260510024604 35 0 0.0 0.0 0.00 0.00 0.00 88 1016.4
20260510021604 36 0 0.0 0.0 0.00 0.00 0.00 87 1016.6
20260510020604 36 0 0.0 0.0 0.00 0.00 0.00 86 1016.7
20260510020115 36 0 0.0 0.0 0.00 0.00 0.00 86 1016.8
20260510014604 37 0 0.0 0.0 0.00 0.00 0.00 86 1016.9
20260510013604 37 0 0.0 0.0 0.00 0.00 0.00 86 1017.1
20260510013105 37 0 0.0 0.0 0.00 0.00 0.00 86 1017.0
20260510010604 37 0 0.0 0.0 0.00 0.00 0.00 85 1017.4
20260510004604 38 0 0.0 0.0 0.00 0.00 0.00 85 1017.8
20260510004105 38 0 0.0 0.0 0.00 0.00 0.00 85 1017.8
20260510003604 38 0 0.0 0.0 0.00 0.00 0.00 85 1017.9
20260510001603 38 0 0.0 0.0 0.00 0.00 0.00 82 1017.9
20260510001103 38 0 0.0 0.0 0.00 0.00 0.00 82 1018.0
20260510000603 39 0 0.0 0.0 0.00 0.00 0.00 83 1018.0
20260510000114 39 0 0.0 0.0 0.00 0.00 0.00 83 1018.0
20260509233604 38 0 0.0 0.0 0.00 0.00 0.00 83 1018.2
20260509224103 40 0 0.0 2.0 0.00 0.00 0.00 80 1018.8
20260509223603 40 0 0.0 2.0 0.00 0.00 0.00 80 1018.9
20260509221107 41 0 0.0 2.0 0.00 0.00 0.00 79 1018.9
20260509220603 41 0 0.0 2.0 0.00 0.00 0.00 78 1018.9
20260509214603 43 38 1.0 2.0 0.00 0.00 0.00 76 1019.0
20260509214103 43 0 0.0 2.0 0.00 0.00 0.00 76 1019.1
20260509213603 43 0 0.0 2.0 0.00 0.00 0.00 75 1019.1
20260509213103 43 0 0.0 2.0 0.00 0.00 0.00 75 1019.1
20260509210603 44 0 0.0 2.0 0.00 0.00 0.00 72 1019.3
20260509204103 45 35 0.0 2.0 0.00 0.00 0.00 69 1019.2
20260509201603 47 0 0.0 1.0 0.00 0.00 0.00 65 1019.3
20260509200114 48 35 0.0 2.0 0.00 0.00 0.00 63 1019.4
20260509194103 50 35 0.0 2.0 0.00 0.00 0.00 60 1019.5
20260509193103 51 350 1.0 2.0 0.00 0.00 0.00 59 1019.5
20260509184104 56 300 0.0 2.0 0.00 0.00 0.00 46 1019.6
20260509183603 57 0 0.0 3.0 0.00 0.00 0.00 46 1019.6
20260509183103 57 269 1.0 3.0 0.00 0.00 0.00 45 1019.5
20260509181604 58 313 6.0 2.0 0.00 0.00 0.00 44 1019.5
20260509174103 59 243 2.0 7.0 0.00 0.00 0.00 45 1019.5
20260509173603 59 208 3.0 3.0 0.00 0.00 0.00 46 1019.6
20260509171103 59 232 5.0 7.0 0.00 0.00 0.00 45 1019.7
20260509164603 60 325 1.0 9.0 0.00 0.00 0.00 43 1019.8
20260509164104 60 269 2.0 9.0 0.00 0.00 0.00 43 1019.9
20260509163603 60 254 8.0 9.0 0.00 0.00 0.00 42 1020.0
20260509160114 60 238 3.0 12.0 0.00 0.00 0.00 40 1020.3
20260509154103 61 270 3.0 10.0 0.00 0.00 0.00 39 1020.4
20260509151603 60 237 6.0 14.0 0.00 0.00 0.00 40 1020.6
20260509150604 61 327 3.0 12.0 0.00 0.00 0.00 40 1020.7
20260509144603 61 254 5.0 14.0 0.00 0.00 0.00 39 1020.7
20260509144104 61 298 1.0 10.0 0.00 0.00 0.00 40 1020.7
20260509143603 61 273 3.0 10.0 0.00 0.00 0.00 40 1020.8
20260509143103 61 239 1.0 14.0 0.00 0.00 0.00 40 1020.8
20260509141604 62 348 6.0 10.0 0.00 0.00 0.00 39 1020.9